Regional Weather Roundup
Issued by NWS State College, PA

Home | Current Version | Previous Version | Text Only | Print | Product List | Glossary On
Versions: 1 2 3 4 5 6 7 8 9 10 11 12 13 14 15 16 17 18 19 20 21 22 23 24 25 26 27 28 29 30 31 32 33 34 35 36 37 38 39 40 41 42 43 44 45 46 47 48 49 50
000
ASUS41 KCTP 301603
RWRCTP

REGIONAL WEATHER ROUNDUP
NATIONAL WEATHER SERVICE STATE COLLEGE PA
1100 AM EST FRI JAN 30 2015

Note: "fair" indicates few or no clouds below 12,000 feet with no
significant weather and/or obstructions to visibility.

* = STATION THAT DOES NOT REPORT PRECIPITATION /E.G. RAIN...SNOW...ETC/
    THUNDER OR FOG.

PAZ002>004-007>009-013>016-020>023-029>032-301700-
WESTERN PENNSYLVANIA

CITY           SKY/WX    TMP DP  RH WIND       PRES   REMARKS
ERIE           FLURRIES  16   7  67 NW15G25   30.27R WCI   1
MEADVILLE      HVY SNOW  16  10  77 NW10G28   30.19R VSB 1/4 WCI   4
FRANKLIN*      CLOUDY    18   9  68 NW20G31   30.17R WCI   1
NEW CASTLE     LGT SNOW  17  10  74 W14G26    30.26R WCI   3
BEAVER COUNTY  CLOUDY    19  10  68 NW15G26   30.22R WCI   5
BUTLER*        CLOUDY    19  10  68 W13G23    30.21R WCI   7
PITTSBURGH INT PTSUNNY   20  13  74 NW16G24   30.22R WCI   6
PITTSBURGH     LGT SNOW  21  10  62 NW16G28   30.18R WCI   7
INDIANA*       CLOUDY    21  16  79 NW14G22   30.16R HAZE    WCI   8
LATROBE        LGT SNOW  23  18  80 NW12G23   30.18R WCI  12
WASHINGTON CO* CLOUDY    21  10  63 NW20G25   30.24R WCI   6
$$

PAZ004>006-010>012-017>019-024>028-033>037-041-042-045-046-049>053-301700-
CENTRAL PENNSYLVANIA

CITY           SKY/WX    TMP DP  RH WIND       PRES   REMARKS
BRADFORD       LGT SNOW  17  10  74 NW18G28   30.01R VSB 3/4 WCI   1
DUBOIS         LGT SNOW  19  13  77 NW16G24   30.05R VSB 1   WCI   4
CLEARFIELD     LGT SNOW  22  15  75 W15G28    30.04R WCI   9
JOHNSTOWN      LGT SNOW  19  13  77 W22G31    30.02R VSB 3/4 WCI   2
ALTOONA        FLURRIES  35  16  45 NW16      30.04R
STATE COLLEGE  NOT AVBL
WILLIAMSPORT   CLOUDY    34  21  59 W15G22    29.99R
SELINSGROVE    CLOUDY    35  23  61 W12G21    29.99R
FT INDIANTOWN  CLOUDY    35  23  61 W9G21     29.97R
CAPITAL CITY   CLOUDY    36  22  56 NW13G23   29.99S
HARRISBURG     CLOUDY    36  22  56 NW21G29   29.98S
YORK           CLOUDY    36  22  56 NW17G26   29.99R
$$

PAZ038>040-043-044-047-048-054-055-060>062-067>071-301700-
EASTERN PENNSYLVANIA

CITY           SKY/WX    TMP DP  RH WIND       PRES   REMARKS
SCRANTON       LGT SNOW  30  22  72 NW14      29.91S
MOUNT POCONO   LGT SNOW  26  21  81 NW21G32   29.80R VSB 1   WCI  12
ALLENTOWN      CLOUDY    35  22  58 NW15      29.92R
QUAKERTOWN*    PTSUNNY   36  23  60 NW10G17   29.92S
READING        PTSUNNY   35  22  58 NW22G29   29.94S
LANCASTER      CLOUDY    35  23  61 NW17G25   29.96R
COATESVILLE    CLOUDY    36  27  69 NW18G29   29.94R
POTTSTOWN      PTSUNNY   35  21  56 NW16G23   29.94R
BLUE BELL      CLOUDY    36  27  69 NW9G17    29.92R
DOYLESTOWN     PTSUNNY   34  26  72 NW15      29.90S
WILLOW GROVE   NOT AVBL
NORTH PHILA    CLOUDY    37  25  61 NW14      29.94S
PHILADELPHIA   PTSUNNY   39  22  50 NW24G30   29.95R
$$


USA.gov is the U.S. government's official web portal to all federal, state and local government web resources and services.